Overview Statistics Trail Chart Weather Telemetry Raw packets
 

This is the latest recevied weather packets stored in our database for station/object EA2KR-10. If no packets are shown the sender has not sent any weather packets the latest 10 day(s).

<< 1 2 3 4 5 6 >>
Time Temp. Humidity Pressure Rain* Wind** Luminosity Snow
1788543211 48.89° C 11% 1032.9 hPa - - - -
1788541411 50° C 11% 1032.8 hPa - - - -
1788539610 50.56° C 11% 1032.9 hPa - - - -
1788537810 51.11° C 11% 1033.1 hPa - - - -
1788536010 50.56° C 12% 1033.1 hPa - - - -
1788534210 50.56° C 12% 1033.2 hPa - - - -
1788532410 50° C 12% 1033.4 hPa - - - -
1788530610 49.44° C 12% 1033.5 hPa - - - -
1788528810 48.89° C 13% 1033.8 hPa - - - -
1788527010 47.78° C 15% 1034.2 hPa - - - -
1788525210 46.67° C 16% 1034.5 hPa - - - -
1788523410 45° C 17% 1034.7 hPa - - - -
1788521609 42.78° C 18% 1034.7 hPa - - - -
1788519809 40.56° C 20% 1034.9 hPa - - - -
1788518009 38.89° C 21% 1035 hPa - - - -
1788516209 36.67° C 22% 1034.9 hPa - - - -
1788514409 34.44° C 23% 1034.9 hPa - - - -
1788512609 32.78° C 23% 1034.8 hPa - - - -
1788510809 31.11° C 24% 1034.6 hPa - - - -
1788509016 29.44° C 24% 1034.4 hPa - - - -
1788507209 27.78° C 24% 1034.4 hPa - - - -
1788505408 27.22° C 24% 1034.4 hPa - - - -
1788503610 26.67° C 25% 1034.3 hPa - - - -
1788501810 26.67° C 25% 1034.1 hPa - - - -
1788500010 26.67° C 25% 1033.8 hPa - - - -

* Rain since midnight (hover to see other rain measurements)
** Current wind speed in m/s (hover to see current wind gust speed)